Location: Bli��� Lhota
(48.7570°N, 14.0120°E)
Time: 06:10:33
(UTC+00:00)

COSMOS 2406 - Pass Details

Date: 18 September 2020
Orbit: 844 x 863 km, 71.0° (Epoch: 22 October)

Event Time Altitude Azimuth Distance (km) Brightness Sun altitude
Rises 20:47:31 0° 328° (NNW) 3,415 7.4 -32.5°
Reaches altitude 10° 20:50:02 10° 324° (NW) 2,475 6.5 -32.7°
Enters shadow 20:54:22 45° 287° (WNW) 1,147 4.1 -33.2°
